Wind from 277 at 3 knots gusting 6

Air temperature 18.9° C
Dewpoint 13.1° C

Last reported at 2014-Apr-18 09:45 UTC.
Time now 2014-Apr-18 10:45 UTC

Location: N 36°46' W 003°52'.
View on Google Maps.

See reports from other nearby stations

Tides Stations Pressure Air Temp Water Temp Dewpoint Dewpoint depression Visibility Wind Speed Wind Dir Waves Ship positions

  
sailing weather and tide predictions

DW8618 Nerja ES weather

date/time (UTC)wind fromknots sea level pressurealtimeterstation pressurevisibilityair tempwater tempwave heightnotes
2014-Apr-18 09:45 277 3 gusting 6 18.9
2014-Apr-18 09:30 280 1 gusting 6 18.9
2014-Apr-18 09:15 280 0 gusting 6 18.3
2014-Apr-18 09:01 280 0 gusting 6 18.3
2014-Apr-18 08:45 286 0 gusting 3 18.3
2014-Apr-18 08:30 286 0 gusting 5 17.8
2014-Apr-18 08:15 286 1 gusting 3 18.3
2014-Apr-18 08:01 286 0 gusting 2 17.8
2014-Apr-18 07:45 286 17.8
2014-Apr-18 07:30 286 0 gusting 3 17.8
2014-Apr-18 07:15 286 0 gusting 2 17.2
2014-Apr-18 07:01 286 16.7
2014-Apr-18 06:45 286 4 gusting 6 16.1
2014-Apr-18 06:30 286 5 gusting 6 15.6
2014-Apr-18 06:15 286 5 gusting 6 15.6
2014-Apr-18 06:01 286 5 gusting 6 15.0
2014-Apr-18 05:45 286 5 gusting 6 15.0
2014-Apr-18 05:30 286 4 gusting 6 15.0
2014-Apr-18 05:15 286 4 gusting 5 15.0
2014-Apr-18 05:01 286 4 gusting 6 15.6
2014-Apr-18 04:45 286 4 gusting 6 15.0
2014-Apr-18 04:31 286 4 gusting 6 15.0
2014-Apr-18 04:15 286 4 gusting 5 15.6
2014-Apr-18 04:01 286 1 gusting 5 15.6
2014-Apr-18 03:45 286 4 gusting 6 15.6
2014-Apr-18 03:31 284 5 gusting 7 15.0
2014-Apr-18 03:15 267 6 gusting 7 15.0
2014-Apr-18 03:01 255 6 gusting 7 15.0
2014-Apr-18 02:45 165 2 gusting 5 15.0
2014-Apr-18 02:30 165 3 gusting 5 15.0
2014-Apr-18 02:16 165 2 gusting 5 15.0
2014-Apr-18 02:01 165 4 gusting 6 15.0
2014-Apr-18 01:46 165 3 gusting 6 15.0
2014-Apr-18 01:30 165 2 gusting 5 15.6
2014-Apr-18 01:15 165 3 gusting 5 15.6
2014-Apr-18 01:01 165 4 gusting 5 16.1
2014-Apr-18 00:46 165 0 gusting 4 15.6
2014-Apr-18 00:30 165 1 gusting 6 15.6
2014-Apr-18 00:15 165 3 gusting 5 15.6
2014-Apr-18 00:01 165 3 gusting 6 15.6
2014-Apr-17 23:45 165 2 gusting 5 15.6
2014-Apr-17 23:30 165 4 gusting 5 15.6
2014-Apr-17 23:15 165 3 gusting 4 15.6
2014-Apr-17 23:01 165 2 gusting 4 16.1
2014-Apr-17 22:45 165 3 gusting 4 16.1
2014-Apr-17 22:31 165 2 gusting 4 16.1
2014-Apr-17 22:15 165 3 gusting 5 16.1
2014-Apr-17 22:01 165 1 gusting 4 16.1
2014-Apr-17 21:45 165 1 gusting 3 16.1
2014-Apr-17 21:30 165 1 gusting 5 16.7
2014-Apr-17 21:15 165 1 gusting 3 16.7
2014-Apr-17 21:01 165 17.2
2014-Apr-17 20:45 165 16.7
2014-Apr-17 20:30 165 17.2
2014-Apr-17 20:15 165 17.8
2014-Apr-17 20:01 165 17.8
2014-Apr-17 19:45 165 17.8
2014-Apr-17 19:31 165 0 gusting 2 17.8
2014-Apr-17 19:15 165 17.8
2014-Apr-17 19:01 165 17.8
2014-Apr-17 18:45 165 18.3
2014-Apr-17 18:30 165 18.3
2014-Apr-17 18:15 165 18.3
2014-Apr-17 18:01 165 18.9
2014-Apr-17 17:45 165 18.9
2014-Apr-17 17:30 165 0 gusting 4 18.9
2014-Apr-17 17:16 165 18.9
2014-Apr-17 17:01 165 0 gusting 3 18.9
2014-Apr-17 16:45 165 0 gusting 4 18.9
2014-Apr-17 16:30 165 2 gusting 4 18.9
2014-Apr-17 16:15 165 3 gusting 5 18.9
2014-Apr-17 16:01 165 0 gusting 6 18.9
2014-Apr-17 15:30 165 2 gusting 5 18.9
2014-Apr-17 15:16 165 2 gusting 6 18.9
2014-Apr-17 15:01 165 1 gusting 5 19.4
2014-Apr-17 14:46 165 1 gusting 6 18.9
2014-Apr-17 14:30 166 4 gusting 9 18.9
2014-Apr-17 14:15 172 2 gusting 6 19.4
2014-Apr-17 14:01 177 2 gusting 7 19.4
2014-Apr-17 13:45 177 1 gusting 5 18.9
2014-Apr-17 13:30 177 18.9
2014-Apr-17 13:16 177 1 gusting 6 18.9
2014-Apr-17 13:01 177 0 gusting 4 18.9
2014-Apr-17 12:46 177 0 gusting 6 18.3
2014-Apr-17 12:30 177 1 gusting 4 17.8
2014-Apr-17 12:15 177 1 gusting 6 17.8
2014-Apr-17 12:01 177 0 gusting 6 17.2
2014-Apr-17 11:46 177 2 gusting 6 17.8
2014-Apr-17 11:30 177 0 gusting 5 17.2
2014-Apr-17 11:15 177 0 gusting 6 17.2
2014-Apr-17 11:01 177 5 gusting 8 16.7
2014-Apr-17 10:45 175 1 gusting 7 16.7
2014-Apr-17 10:31 175 3 gusting 8 16.1
2014-Apr-17 10:15 177 3 gusting 6 16.7
2014-Apr-17 10:01 177 2 gusting 6 16.7
2014-Apr-17 09:45 177 16.1
2014-Apr-17 09:30 177 2 gusting 6 16.1
2014-Apr-17 09:15 181 3 gusting 8 16.1
2014-Apr-17 09:01 181 4 gusting 8 16.1
2014-Apr-17 08:45 188 4 gusting 8 16.1
2014-Apr-17 08:31 188 0 gusting 6 16.1
2014-Apr-17 08:15 188 2 gusting 6 16.7
2014-Apr-17 08:01 188 0 gusting 3 16.7
2014-Apr-17 07:45 188 1 gusting 6 16.1
2014-Apr-17 07:30 188 0 gusting 4 16.7
2014-Apr-17 07:15 188 1 gusting 4 16.7
2014-Apr-17 07:01 188 17.2
2014-Apr-17 06:45 188 16.1
2014-Apr-17 06:30 188 0 gusting 2 15.6
2014-Apr-17 06:16 188 1 gusting 2 15.6
2014-Apr-17 06:01 187 15.0
2014-Apr-17 05:45 188 2 gusting 4 14.4
2014-Apr-17 05:30 188 3 gusting 4 14.4
2014-Apr-17 05:16 188 2 gusting 4 14.4
2014-Apr-17 05:01 188 3 gusting 4 14.4
2014-Apr-17 04:46 188 2 gusting 3 15.0
2014-Apr-17 04:31 188 15.6
2014-Apr-17 04:15 188 15.6
2014-Apr-17 04:01 188 15.6
2014-Apr-17 03:45 188 15.6
2014-Apr-17 03:30 188 15.6
2014-Apr-17 03:15 188 4 gusting 5 15.0
2014-Apr-17 03:01 188 3 gusting 5 15.0
2014-Apr-17 02:46 188 1 gusting 4 15.0
2014-Apr-17 02:30 187 15.0
2014-Apr-17 02:15 188 15.6
2014-Apr-17 02:01 188 15.6
2014-Apr-17 01:45 188 15.0
2014-Apr-17 01:31 188 1 gusting 3 15.0
2014-Apr-17 01:15 188 1 gusting 3 15.6
2014-Apr-17 01:01 188 2 gusting 3 15.6
2014-Apr-17 00:45 188 3 gusting 4 15.6
2014-Apr-17 00:30 188 1 gusting 3 15.6
2014-Apr-17 00:15 188 15.6
2014-Apr-17 00:01 188 15.6
2014-Apr-16 23:45 188 16.1
2014-Apr-16 23:30 188 2 gusting 4 16.1
2014-Apr-16 23:15 188 2 gusting 3 16.1
2014-Apr-16 23:01 188 2 gusting 3 16.1
2014-Apr-16 22:45 188 16.1
2014-Apr-16 22:30 188 1 gusting 4 16.1
2014-Apr-16 22:15 188 2 gusting 4 16.1
2014-Apr-16 22:01 188 16.7
2014-Apr-16 21:45 188 16.7
2014-Apr-16 21:31 188 17.2
2014-Apr-16 21:15 188 17.2
2014-Apr-16 21:01 188 17.2
2014-Apr-16 20:45 188 16.7
2014-Apr-16 20:31 188 17.8
2014-Apr-16 20:15 187 17.8
2014-Apr-16 20:01 188 17.2
2014-Apr-16 19:45 188 17.8
2014-Apr-16 19:30 188 17.8
2014-Apr-16 19:16 188 17.8
2014-Apr-16 19:01 188 18.3
2014-Apr-16 18:45 188 18.3
2014-Apr-16 18:30 188 18.3
2014-Apr-16 18:15 188 18.3
2014-Apr-16 18:01 188 18.3
2014-Apr-16 17:45 188 18.9
2014-Apr-16 17:31 188 18.9
2014-Apr-16 17:15 188 18.9
2014-Apr-16 17:01 188 18.3
2014-Apr-16 16:45 188 18.9
2014-Apr-16 16:31 188 18.9
2014-Apr-16 16:15 188 19.4
2014-Apr-16 16:01 188 0 gusting 4 19.4
2014-Apr-16 15:45 188 18.9
2014-Apr-16 15:15 188 1 gusting 5 18.9
2014-Apr-16 15:01 188 3 gusting 5 18.9
2014-Apr-16 14:45 188 2 gusting 5 18.9
2014-Apr-16 14:30 188 1 gusting 5 19.4
2014-Apr-16 14:16 188 1 gusting 5 18.3
2014-Apr-16 14:01 188 1 gusting 6 18.9
2014-Apr-16 13:45 188 2 gusting 5 18.9
2014-Apr-16 13:31 188 2 gusting 5 18.3
2014-Apr-16 13:15 188 0 gusting 9 18.3
2014-Apr-16 13:01 189 3 gusting 8 17.8
2014-Apr-16 12:45 189 4 gusting 6 18.3
2014-Apr-16 12:30 189 4 gusting 7 17.8
2014-Apr-16 12:15 189 3 gusting 8 18.3
2014-Apr-16 12:01 190 6 gusting 9 18.3
2014-Apr-16 11:45 193 4 gusting 6 18.3
2014-Apr-16 11:30 207 5 gusting 9 18.3
2014-Apr-16 11:15 222 6 gusting 6 18.3
2014-Apr-16 11:01 222 0 gusting 6 18.3
2014-Apr-16 10:45 222 4 gusting 8 17.8
2014-Apr-16 10:31 222 3 gusting 6 17.8